STARLINK-32939, 63149

Orbit data source: Space-Track

STARLINK-32939, 63149 is a payload satellite owned by SpaceX/Seattle (US) in LEO that was launched on Mon, 03 Mar 2025 UTC via an FALCON 9 launch vehicle from the Air Force Eastern Test Range (AFETR). Payload-class satellites include a variety of spacecraft equipped with specific instruments for various scientific and technological missions. These include communications satellites like Starlink; space stations such as the ISS; scientific satellites like the Hubble; Earth observation satellites from companies like Planet Labs, Umbra, and HawkEye 360; GPS; miniature CubeSats for education and research; and military/defense satellites.

Loading next visibility...
Identifier
63149, 2025-043T
Orbit
LEO
Country
Flag of USUS
Related business
Manufacturer
SpaceX/Seattle
Mission
Operational Commercial Communications
Bus & Motor
STARLINK V2M, Unknown motor
Mass
730 kg wet, ~700 kg dry
Launch date (UTC)
2025-03-03 (8 months ago)
Launch vehicle
FALCON 9
Launch site
Air Force Eastern Test Range (AFETR)
Object type
Payload
Rocket body
Debris
Shape & HBR
Box + 2 Pan, 17.7 m
Radar Cross Section
33.884 m², Large (>1 m²)

Expand to show TLE details & history
Last TLE update: 19 hours ago

TLE from 19 hours ago
0 STARLINK-32939
1 63149U 25043T   25291.20613786  .00033122  00000-0  12068-2 0  9999
2 63149  43.0017 100.7019 0001788 281.2153  78.8498 15.27606180 35574
Epoch: 2025-10-18T04:56Z
TLE epoch observation values (Epoch: 2025-10-18T04:56:50.311Z)
Latitude
0.00002°
Longitude
-0.44819°
Altitude
482.509 km
Speed
7.626 km/s
True Right ascension
06h 42m 48s
True Declination
0° 00' 00"
Sunlit
Object was in daylight at epoch
Visualization orbit readout
Latitude
Unknown
Longitude
Unknown
Altitude
Unknown
Speed
Unknown
Apparent Right ascension
Unknown
Apparent Declination
Unknown
Sunlit
N/A
Visualization observer readout
Local Sidereal Time
18:37:14
Azimuth
Unknown
Elevation
Unknown
Doppler factor
Unknown
Orbital elements
Apogee altitude
486.143 km
Perigee altitude
483.689 km
Semi-major axis
6,863.053 km
Eccentricity
0.00018
Inclination
43.0017°
RAAN
100.7019°
Arg. of periapsis
281.2153°
True anomaly
78.8699°
Mean anomaly
78.8498°
Eccentric anomaly
78.85985°
Mean motion
3.8174 °/min
Orbital period
94.31 mins
BSTAR
0.0012068
Loading maneuver chart data...
Computing Atmospheric mass density...
Loading historical data...
Loading historical data...
Loading historical data...
Loading historical data...
Loading historical data...
Loading historical data...
Loading historical data...

Documentation

Showing up to 5 results
|